Regional Weather Roundup
Issued by NWS Jackson, KY

Home | Current Version | Previous Version | Graphics & Text | Print | Product List | Glossary On
Versions: 1 2 3 4 5 6 7 8 9 10 11 12 13 14 15 16 17 18 19 20 21 22 23 24 25 26 27 28 29 30 31 32 33 34 35 36 37 38 39 40 41 42 43 44 45 46 47 48 49 50
000
ASUS43 KJKL 261010
RWRJKL

EAST KENTUCKY HOURLY WEATHER ROUNDUP
NATIONAL WEATHER SERVICE JACKSON KY
600 AM EDT THU APR 26 2018

NOTE: "FAIR" INDICATES FEW OR NO CLOUDS BELOW 12,000 FEET WITH
NO SIGNIFICANT WEATHER AND/OR OBSTRUCTIONS TO VISIBILITY.

* THESE REPORTS ARE NOT UNDER NWS QUALITY CONTROL AND MAY NOT
  REPORT WEATHER SUCH AS PRECIPITATION AND FOG.

KYZ079-080-083-085-087-088-110-112-115-119-120-261100
...EASTERN KENTUCKY...

CITY           SKY/WX    TMP DP  RH WIND       PRES   REMARKS
JACKSON          N/A     49  48  97 CALM      29.88F
LONDON         FOG       46  46 100 SE3       29.87F VSB 1/2
SOMERSET*        N/A     46  46 100 CALM      29.88F
WILLIAMSBURG*  CLOUDY    46  46 100 CALM      29.87F VSB<1/4
MIDDLESBORO*   FOG       49  49 100 CALM      29.90F VSB 1
HARLAN APT*    CLOUDY    49  49 100 CALM      29.90F VSB 1/4
PIKE CO APT*   FOG       48  48 100 CALM      29.89F VSB<1/4
BIG SANDY APT* FOG       48  48 100 CALM      29.90S VSB 1/2
MOREHEAD APT*  CLOUDY    48  46  93 SE5       29.90S FOG
ASHLAND*       LGT RAIN  46  46 100 CALM      29.90S VSB 3/4
$$

KYZ035-036-041-042-044-050-067-078-099-261100
...CENTRAL KENTUCKY...

CITY           SKY/WX    TMP DP  RH WIND       PRES   REMARKS
MT STERLING*     N/A     46  45  93 CALM      29.89F
FLEMING/MASON*   N/A     45  45 100 E3        29.90S FOG
DANVILLE*        N/A     46  46 100 CALM      29.89S
LEXINGTON        N/A     49  41  74 N3        29.88F
FRANKFORT        N/A     49  38  65 NW3       29.87F
LOUISVILLE     CLOUDY    50  35  56 N7        29.90S
LEBANON*         N/A     50  46  87 CALM      29.88S
GLASGOW*         N/A     49  47  94 CALM      29.86S
BOWLING GREEN  CLOUDY    54  53  97 N3        29.85F
$$

KYZ091>093-OHZ055-061-077-WVZ005-015-034-035-042-261100
...SOUTHERN OHIO/WEST VIRGINIA...

CITY           SKY/WX    TMP DP  RH WIND       PRES   REMARKS
COVINGTON      MOCLDY    45  34  65 N6        29.89S
COLUMBUS       MOCLDY    42  38  85 E6        29.91S
DAYTON           N/A     41  35  79 N6        29.90F
WILMINGTON       N/A     44  36  73 N5        29.88S
HUNTINGTON     FOG       44  42  93 CALM      29.88S VSB 1/2
CHARLESTON     FOG       46  46 100 CALM      29.89S VSB 1/2
PINEVILLE*     FOG       45  44  97 MISG      29.95S VSB 1/2
BECKLEY        FOG       40  39  97 CALM      29.89S VSB 1/4
BLUEFIELD        N/A     43  41  93 SW3       29.90S FOG
LOGAN CO APT*  FOG       48  48 100 CALM      29.89S VSB<1/4
$$

VAZ002-007-008-TNZ017-027-036-066-071-261100
...SOUTHWEST VIRGINIA/EAST TENNESSEE...

CITY           SKY/WX    TMP DP  RH WIND       PRES   REMARKS
WISE*            N/A     46  46 100 CALM      29.91S
JONESVILLE*      N/A     46  46 100 CALM      29.92F
ABINGDON*        N/A     48  47  93 CALM      29.90F
BRISTOL        CLOUDY    49  47  93 CALM      29.90S
MORRISTOWN*    MOSUNNY   48  48 100 CALM      29.88F FOG
SEVIERVILLE*   SUNNY     50  48  93 CALM      29.88F
KNOXVILLE      MOCLDY    50  50 100 CALM      29.86F
LAFOLLETTE*    FOG       46  46 100 CALM      29.90F VSB 1/4
OAK RIDGE      FOG       50  50 100 CALM      29.88F VSB 1/4
CROSSVILLE     MOCLDY    48  46  93 CALM      29.88S
NASHVILLE      CLOUDY    57  51  80 CALM      29.85F
$$

...KEY TO REMARKS...
VSB - VISIBILITY IN MILES
WCI - WIND CHILL INDEX
HX  - HEAT INDEX

$$



USA.gov is the U.S. government's official web portal to all federal, state and local government web resources and services.